• In Hungary
  • List of Countries
  • For 7 days
  • Water Temperature
  • Satellite Maps
  • Weather Map
  • News
  • Weather Widgets
  • user-avatar
    Login

    Hourly Weather Asmera

    Today, 22 February, Thursday

    Time Temperature Precipitation Wind Pressure Humidity
    00:00 +16°C° 0 mm 1 mps 577 mmHg 45%
    01:00 +16°C° 0 mm 1 mps 577 mmHg 47%
    02:00 +15°C° 0 mm 1 mps 577 mmHg 49%
    03:00 +14°C° 0 mm 0 mps 576 mmHg 49%
    04:00 +15°C° 0 mm 1 mps 576 mmHg 51%
    05:00 +14°C° 0 mm 1 mps 576 mmHg 53%
    06:00 +14°C° 0 mm 1 mps 576 mmHg 56%
    07:00 +15°C° 0 mm 1 mps 577 mmHg 52%
    08:00 +16°C° 0 mm 1 mps 578 mmHg 48%
    09:00 +19°C° 0 mm 1 mps 579 mmHg 44%
    10:00 +20°C° 0 mm 1 mps 579 mmHg 40%
    11:00 +20°C° 0 mm 2 mps 579 mmHg 36%
    12:00 +21°C° 0 mm 2 mps 579 mmHg 32%
    13:00 +23°C° 0 mm 2 mps 579 mmHg 32%
    14:00 +22°C° 0 mm 3 mps 579 mmHg 32%
    15:00 +24°C° 0 mm 3 mps 579 mmHg 32%
    16:00 +22°C° 0.2 mm 3 mps 578 mmHg 37%
    17:00 +21°C° 0.2 mm 3 mps 578 mmHg 42%
    18:00 +20°C° 0.2 mm 3 mps 577 mmHg 46%
    19:00 +19°C° 0 mm 3 mps 577 mmHg 51%
    20:00 +18°C° 0 mm 3 mps 577 mmHg 55%
    21:00 +17°C° 0 mm 2 mps 577 mmHg 59%
    22:00 +17°C° 0 mm 2 mps 577 mmHg 58%
    23:00 +17°C° 0 mm 2 mps 577 mmHg 57%

    Tomorrow, 23 February, Friday

    Time Temperature Precipitation Wind Pressure Humidity
    00:00 +16°C° 0 mm 1 mps 577 mmHg 56%
    01:00 +16°C° 0 mm 1 mps 577 mmHg 56%
    02:00 +16°C° 0 mm 1 mps 577 mmHg 55%
    03:00 +15°C° 0 mm 1 mps 576 mmHg 54%
    04:00 +15°C° 0 mm 1 mps 576 mmHg 55%
    05:00 +15°C° 0 mm 1 mps 576 mmHg 56%
    06:00 +14°C° 0 mm 1 mps 576 mmHg 56%
    07:00 +16°C° 0 mm 1 mps 577 mmHg 53%
    08:00 +18°C° 0 mm 1 mps 577 mmHg 49%
    09:00 +19°C° 0 mm 1 mps 578 mmHg 46%
    10:00 +19°C° 0 mm 2 mps 578 mmHg 41%
    11:00 +21°C° 0 mm 2 mps 579 mmHg 36%
    12:00 +23°C° 0 mm 2 mps 579 mmHg 32%
    13:00 +24°C° 0 mm 2 mps 579 mmHg 30%
    14:00 +24°C° 0 mm 2 mps 578 mmHg 28%
    15:00 +25°C° 0 mm 3 mps 578 mmHg 26%
    16:00 +24°C° 0 mm 3 mps 578 mmHg 28%
    17:00 +22°C° 0 mm 3 mps 577 mmHg 30%
    18:00 +21°C° 0 mm 3 mps 577 mmHg 32%
    19:00 +21°C° 0 mm 2 mps 577 mmHg 36%
    20:00 +20°C° 0 mm 2 mps 577 mmHg 40%
    21:00 +20°C° 0 mm 1 mps 577 mmHg 43%
    22:00 +20°C° 0 mm 1 mps 577 mmHg 45%
    23:00 +19°C° 0 mm 1 mps 577 mmHg 46%

    Day after tomorrow, 24 February, Saturday

    Time Temperature Precipitation Wind Pressure Humidity
    00:00 +17°C° 0 mm 0 mps 577 mmHg 48%
    01:00 +16°C° 0 mm 0 mps 577 mmHg 48%
    02:00 +16°C° 0 mm 0 mps 576 mmHg 48%
    03:00 +16°C° 0 mm 0 mps 576 mmHg 49%
    04:00 +15°C° 0 mm 0 mps 576 mmHg 48%
    05:00 +15°C° 0 mm 0 mps 576 mmHg 47%
    06:00 +15°C° 0 mm 0 mps 576 mmHg 45%
    07:00 +18°C° 0 mm 1 mps 577 mmHg 40%
    08:00 +20°C° 0 mm 1 mps 578 mmHg 34%
    09:00 +21°C° 0 mm 1 mps 579 mmHg 29%
    10:00 +23°C° 0 mm 1 mps 579 mmHg 26%
    11:00 +24°C° 0 mm 2 mps 579 mmHg 24%
    12:00 +25°C° 0 mm 2 mps 580 mmHg 21%
    13:00 +25°C° 0 mm 3 mps 579 mmHg 21%
    14:00 +26°C° 0 mm 3 mps 579 mmHg 21%
    15:00 +26°C° 0 mm 3 mps 578 mmHg 21%
    16:00 +25°C° 0 mm 3 mps 578 mmHg 24%
    17:00 +24°C° 0 mm 3 mps 578 mmHg 26%
    18:00 +22°C° 0 mm 3 mps 578 mmHg 29%
    19:00 +21°C° 0 mm 3 mps 578 mmHg 34%
    20:00 +20°C° 0 mm 3 mps 578 mmHg 39%
    21:00 +19°C° 0 mm 2 mps 578 mmHg 43%
    22:00 +18°C° 0 mm 2 mps 578 mmHg 46%
    23:00 +18°C° 0 mm 2 mps 578 mmHg 48%

    25 February, Sunday

    Time Temperature Precipitation Wind Pressure Humidity
    00:00 +18°C° 0 mm 1 mps 578 mmHg 51%
    01:00 +18°C° 0 mm 1 mps 577 mmHg 51%
    02:00 +16°C° 0 mm 1 mps 577 mmHg 51%
    03:00 +16°C° 0 mm 1 mps 576 mmHg 52%
    04:00 +15°C° 0 mm 1 mps 576 mmHg 51%
    05:00 +15°C° 0 mm 1 mps 576 mmHg 50%
    06:00 +15°C° 0 mm 1 mps 576 mmHg 50%
    07:00 +16°C° 0 mm 1 mps 578 mmHg 43%
    08:00 +19°C° 0 mm 1 mps 579 mmHg 37%
    09:00 +20°C° 0 mm 1 mps 580 mmHg 31%
    10:00 +21°C° 0 mm 1 mps 580 mmHg 28%
    11:00 +21°C° 0 mm 2 mps 580 mmHg 25%
    12:00 +24°C° 0 mm 2 mps 580 mmHg 22%
    13:00 +24°C° 0 mm 3 mps 580 mmHg 23%
    14:00 +24°C° 0 mm 3 mps 579 mmHg 24%
    15:00 +24°C° 0 mm 3 mps 579 mmHg 24%
    16:00 +22°C° 0 mm 3 mps 579 mmHg 28%
    17:00 +22°C° 0 mm 3 mps 578 mmHg 31%
    18:00 +21°C° 0 mm 3 mps 578 mmHg 35%
    19:00 +20°C° 0 mm 2 mps 578 mmHg 40%
    20:00 +19°C° 0 mm 2 mps 578 mmHg 46%
    21:00 +18°C° 0 mm 2 mps 578 mmHg 51%
    22:00 +18°C° 0 mm 1 mps 578 mmHg 53%
    23:00 +18°C° 0 mm 1 mps 578 mmHg 55%

    26 February, Monday

    Time Temperature Precipitation Wind Pressure Humidity
    00:00 +16°C° 0 mm 1 mps 578 mmHg 57%
    01:00 +16°C° 0 mm 1 mps 577 mmHg 57%
    02:00 +16°C° 0 mm 1 mps 577 mmHg 57%
    03:00 +15°C° 0 mm 1 mps 576 mmHg 57%
    04:00 +15°C° 0 mm 1 mps 576 mmHg 56%
    05:00 +14°C° 0 mm 1 mps 576 mmHg 56%
    06:00 +14°C° 0 mm 1 mps 576 mmHg 56%
    07:00 +15°C° 0 mm 1 mps 577 mmHg 50%
    08:00 +18°C° 0 mm 1 mps 578 mmHg 43%
    09:00 +19°C° 0 mm 1 mps 579 mmHg 36%
    10:00 +20°C° 0 mm 2 mps 579 mmHg 32%
    11:00 +21°C° 0 mm 2 mps 579 mmHg 27%
    12:00 +24°C° 0 mm 3 mps 580 mmHg 22%
    13:00 +24°C° 0 mm 3 mps 579 mmHg 22%
    14:00 +24°C° 0 mm 3 mps 579 mmHg 21%
    15:00 +25°C° 0 mm 4 mps 578 mmHg 20%
    16:00 +24°C° 0 mm 3 mps 578 mmHg 22%
    17:00 +22°C° 0 mm 3 mps 578 mmHg 24%
    18:00 +22°C° 0 mm 3 mps 578 mmHg 26%
    19:00 +20°C° 0 mm 2 mps 578 mmHg 30%
    20:00 +19°C° 0 mm 2 mps 578 mmHg 33%
    21:00 +19°C° 0 mm 1 mps 578 mmHg 37%
    22:00 +19°C° 0 mm 1 mps 578 mmHg 38%
    23:00 +18°C° 0 mm 1 mps 577 mmHg 40%

    27 February, Tuesday

    Time Temperature Precipitation Wind Pressure Humidity
    00:00 +16°C° 0 mm 0 mps 577 mmHg 42%
    01:00 +15°C° 0 mm 0 mps 577 mmHg 41%
    02:00 +15°C° 0 mm 0 mps 576 mmHg 39%
    03:00 +14°C° 0 mm 0 mps 576 mmHg 38%
    04:00 +14°C° 0 mm 0 mps 576 mmHg 37%
    05:00 +13°C° 0 mm 0 mps 576 mmHg 35%
    06:00 +13°C° 0 mm 0 mps 576 mmHg 33%
    07:00 +16°C° 0 mm 1 mps 577 mmHg 30%
    08:00 +18°C° 0 mm 1 mps 578 mmHg 27%
    09:00 +19°C° 0 mm 2 mps 580 mmHg 23%
    10:00 +20°C° 0 mm 2 mps 580 mmHg 23%
    11:00 +21°C° 0 mm 2 mps 580 mmHg 23%
    12:00 +22°C° 0 mm 3 mps 580 mmHg 23%
    13:00 +22°C° 0 mm 3 mps 580 mmHg 24%
    14:00 +24°C° 0 mm 3 mps 579 mmHg 25%
    15:00 +23°C° 0 mm 4 mps 579 mmHg 26%
    16:00 +22°C° 0 mm 4 mps 579 mmHg 31%
    17:00 +21°C° 0 mm 4 mps 578 mmHg 36%
    18:00 +20°C° 0 mm 3 mps 578 mmHg 41%
    19:00 +19°C° 0 mm 3 mps 578 mmHg 47%
    20:00 +18°C° 0 mm 3 mps 578 mmHg 54%
    21:00 +17°C° 0 mm 2 mps 578 mmHg 60%
    22:00 +16°C° 0 mm 2 mps 578 mmHg 63%
    23:00 +16°C° 0 mm 2 mps 578 mmHg 65%
    Show more